Location: Great Snoring
(52.8667°N, 0.8833°E)
Time: 21:03:47
(UTC+00:00)

Cosmos 405 Rocket - Pass Details

Date: 19 May 2025
Orbit: 413 x 447 km, 81.2° (Epoch: 21 June)

Event Time Altitude Azimuth Distance (km) Brightness Sun altitude
Rises 23:11:22 0° 339° (NNW) 2,464 7.8 -16.6°
Reaches altitude 10° 23:13:37 10° 328° (NNW) 1,580 6.2 -16.6°
Maximum altitude 23:16:39 29° 266° (W) 839 3.8 -16.7°
Enters shadow 23:17:46 24° 231° (SW) 973 3.8 -16.7°
